Private Wetterstation Wechselburg
Wetterdaten: Montag, 28.12.2020
Datum Zeit Temp. +2m Bodentemp. Temp.+5cm Temp. Wind Windchill X Diff Temp. Feuchte +2m Feuchte +5cm Luftdruck Regen Wind Richtung Richtung Sonnenschein Taupunkt Windchill Windben
28.12.2020 00:00 1,4 C 3,9 C 0,8 C 1,2 C 0,7 C 0,0 C 67 % 71 % 989,9 hPa 0,0 l/m 2,7 km/h (1 Bft) W-SW 247 0 min -4,0 C 0,7 C 8,0 km/h (2 Bft)
28.12.2020 00:05 1,4 C 3,9 C 0,7 C 1,2 C 0,7 C 0,0 C 67 % 72 % 989,9 hPa 0,0 l/m 2,7 km/h (1 Bft) O-NO 67 0 min -4,0 C 0,7 C 9,5 km/h (2 Bft)
28.12.2020 00:11 1,5 C 3,9 C 0,7 C 1,2 C 0,7 C 0,0 C 67 % 72 % 989,7 hPa 0,0 l/m 2,7 km/h (1 Bft) N 0 0 min -3,9 C 0,7 C 3,2 km/h (1 Bft)
28.12.2020 00:26 1,4 C 3,9 C 0,7 C 1,2 C 0,8 C 0,0 C 68 % 72 % 989,7 hPa 0,0 l/m 2,6 km/h (1 Bft) SW 225 0 min -3,8 C 0,8 C 1,8 km/h (1 Bft)
28.12.2020 00:27 1,4 C 3,9 C 0,7 C 1,2 C 0,8 C 0,0 C 68 % 72 % 989,7 hPa 0,0 l/m 2,6 km/h (1 Bft) SW 225 0 min -3,8 C 0,8 C 1,8 km/h (1 Bft)
28.12.2020 00:39 1,3 C 3,9 C 0,7 C 1,2 C 0,9 C 0,0 C 68 % 73 % 989,3 hPa 0,0 l/m 1,4 km/h (1 Bft) O-SO 112 0 min -3,9 C 0,9 C 0,0 km/h (0 Bft)
28.12.2020 00:45 1,3 C 3,9 C 0,7 C 1,2 C 0,9 C 0,0 C 69 % 73 % 989,3 hPa 0,0 l/m 2,1 km/h (1 Bft) S 180 0 min -3,7 C 0,9 C 2,1 km/h (1 Bft)
28.12.2020 00:50 1,3 C 3,9 C 0,7 C 1,2 C 0,9 C 0,0 C 69 % 73 % 989,1 hPa 0,0 l/m 1,9 km/h (1 Bft) O 90 0 min -3,7 C 0,9 C 0,0 km/h (0 Bft)
28.12.2020 00:55 1,3 C 3,9 C 0,8 C 1,2 C 0,9 C 0,0 C 69 % 73 % 989,1 hPa 0,0 l/m 1,4 km/h (1 Bft) O-SO 112 0 min -3,7 C 0,9 C 2,7 km/h (1 Bft)
28.12.2020 01:00 1,4 C 3,9 C 0,9 C 1,3 C 1,0 C 0,0 C 69 % 73 % 989,1 hPa 0,0 l/m 2,3 km/h (1 Bft) W 270 0 min -3,7 C 1,0 C 7,9 km/h (2 Bft)
28.12.2020 01:05 1,5 C 3,9 C 0,9 C 1,2 C 0,6 C 0,0 C 69 % 73 % 989,1 hPa 0,0 l/m 3,4 km/h (1 Bft) W-NW 292 0 min -3,6 C 0,6 C 2,6 km/h (1 Bft)
28.12.2020 01:10 1,4 C 3,9 C 0,9 C 1,2 C 0,8 C 0,0 C 69 % 73 % 989,1 hPa 0,0 l/m 2,9 km/h (1 Bft) O-NO 67 0 min -3,7 C 0,8 C 2,6 km/h (1 Bft)
28.12.2020 01:15 1,4 C 3,9 C 0,9 C 1,3 C 1,1 C 0,0 C 69 % 73 % 989,1 hPa 0,0 l/m 1,9 km/h (1 Bft) S-SO 157 0 min -3,7 C 1,1 C 4,8 km/h (1 Bft)
28.12.2020 01:20 1,4 C 3,9 C 0,9 C 1,3 C 1,1 C 0,0 C 69 % 74 % 989,1 hPa 0,0 l/m 2,6 km/h (1 Bft) SW 225 0 min -3,7 C 1,1 C 3,1 km/h (1 Bft)
28.12.2020 01:25 1,5 C 3,9 C 0,9 C 1,2 C 0,7 C 0,0 C 70 % 74 % 989,1 hPa 0,0 l/m 3,1 km/h (1 Bft) S-SO 157 0 min -3,4 C 0,7 C 3,9 km/h (1 Bft)
28.12.2020 01:30 1,5 C 3,9 C 0,8 C 1,3 C 0,9 C 0,0 C 70 % 74 % 989,1 hPa 0,0 l/m 2,7 km/h (1 Bft) S 180 0 min -3,4 C 0,9 C 3,9 km/h (1 Bft)
28.12.2020 01:35 1,5 C 3,9 C 0,8 C 1,2 C 0,5 C 0,0 C 70 % 75 % 989,1 hPa 0,0 l/m 3,2 km/h (1 Bft) S 180 0 min -3,4 C 0,5 C 4,3 km/h (1 Bft)
28.12.2020 01:40 1,5 C 3,9 C 0,9 C 1,2 C 0,6 C 0,0 C 70 % 75 % 989,1 hPa 0,0 l/m 3,4 km/h (1 Bft) S-SO 157 0 min -3,4 C 0,6 C 3,7 km/h (1 Bft)
28.12.2020 01:45 1,5 C 3,9 C 0,9 C 1,1 C 0,3 C 0,0 C 71 % 75 % 989,1 hPa 0,0 l/m 3,7 km/h (1 Bft) S 180 0 min -3,2 C 0,3 C 2,6 km/h (1 Bft)
28.12.2020 01:50 1,5 C 3,9 C 0,9 C 1,4 C 1,1 C 0,0 C 71 % 75 % 989,0 hPa 0,0 l/m 2,6 km/h (1 Bft) S-SW 202 0 min -3,2 C 1,1 C 3,2 km/h (1 Bft)
28.12.2020 01:55 1,4 C 3,9 C 0,8 C 1,3 C 1,1 C 0,0 C 71 % 75 % 989,0 hPa 0,0 l/m 2,4 km/h (1 Bft) S 180 0 min -3,3 C 1,1 C 9,2 km/h (2 Bft)
28.12.2020 02:00 1,5 C 3,9 C 0,9 C 1,2 C 0,6 C 0,0 C 71 % 76 % 989,0 hPa 0,0 l/m 3,4 km/h (1 Bft) SO 135 0 min -3,2 C 0,6 C 4,8 km/h (1 Bft)
28.12.2020 02:05 1,5 C 3,9 C 0,9 C 1,2 C 0,6 C 0,0 C 71 % 76 % 989,0 hPa 0,0 l/m 3,5 km/h (1 Bft) O-NO 67 0 min -3,2 C 0,6 C 3,5 km/h (1 Bft)
28.12.2020 02:11 1,5 C 3,9 C 0,9 C 1,4 C 1,1 C 0,0 C 71 % 76 % 989,3 hPa 0,0 l/m 2,3 km/h (1 Bft) N 0 0 min -3,2 C 1,1 C 1,6 km/h (1 Bft)
28.12.2020 02:26 1,5 C 3,9 C 1,0 C 1,4 C 1,2 C 0,0 C 72 % 76 % 989,3 hPa 0,0 l/m 1,8 km/h (1 Bft) N-NO 22 0 min -3,0 C 1,2 C 3,1 km/h (1 Bft)
28.12.2020 02:38 1,6 C 3,9 C 1,0 C 1,5 C 1,3 C 0,0 C 72 % 76 % 989,1 hPa 0,0 l/m 1,3 km/h (1 Bft) SO 135 0 min -2,9 C 1,3 C 0,0 km/h (0 Bft)
28.12.2020 02:40 1,6 C 3,9 C 1,0 C 1,5 C 1,3 C 0,0 C 72 % 76 % 989,1 hPa 0,0 l/m 1,3 km/h (1 Bft) SO 135 0 min -2,9 C 1,3 C 0,0 km/h (0 Bft)
28.12.2020 02:45 1,7 C 3,9 C 1,1 C 1,6 C 1,3 C 0,0 C 72 % 76 % 989,1 hPa 0,0 l/m 0,8 km/h (0 Bft) O-NO 67 0 min -2,8 C 1,3 C 0,0 km/h (0 Bft)
28.12.2020 02:50 1,6 C 3,9 C 1,1 C 1,5 C 1,3 C 0,0 C 72 % 76 % 988,8 hPa 0,0 l/m 0,5 km/h (0 Bft) O-NO 67 0 min -2,9 C 1,3 C 0,0 km/h (0 Bft)
28.12.2020 02:55 1,6 C 3,9 C 1,1 C 1,5 C 1,3 C 0,0 C 72 % 76 % 988,8 hPa 0,0 l/m 1,0 km/h (0 Bft) O-NO 67 0 min -2,9 C 1,3 C 0,0 km/h (0 Bft)
28.12.2020 03:00 1,6 C 3,9 C 1,1 C 1,5 C 1,2 C 0,0 C 72 % 77 % 988,8 hPa 0,0 l/m 1,3 km/h (1 Bft) S 180 0 min -2,9 C 1,2 C 0,0 km/h (0 Bft)
28.12.2020 03:05 1,6 C 3,9 C 1,0 C 1,5 C 1,2 C 0,0 C 72 % 77 % 988,8 hPa 0,0 l/m 0,5 km/h (0 Bft) O-NO 67 0 min -2,9 C 1,2 C 0,0 km/h (0 Bft)
28.12.2020 03:10 1,5 C 3,9 C 1,0 C 1,4 C 1,2 C 0,0 C 73 % 77 % 988,8 hPa 0,0 l/m 0,5 km/h (0 Bft) NO 45 0 min -2,8 C 1,2 C 0,0 km/h (0 Bft)
28.12.2020 03:15 1,5 C 3,9 C 1,0 C 1,4 C 1,1 C 0,0 C 73 % 77 % 988,8 hPa 0,0 l/m 0,3 km/h (0 Bft) S 180 0 min -2,8 C 1,1 C 0,0 km/h (0 Bft)
28.12.2020 03:20 1,5 C 3,9 C 1,0 C 1,4 C 1,1 C 0,0 C 73 % 77 % 988,8 hPa 0,0 l/m 0,3 km/h (0 Bft) O-NO 67 0 min -2,8 C 1,1 C 0,0 km/h (0 Bft)
28.12.2020 03:25 1,5 C 3,9 C 1,0 C 1,4 C 1,2 C 0,0 C 73 % 77 % 988,8 hPa 0,0 l/m 1,6 km/h (1 Bft) N 360 0 min -2,8 C 1,2 C 4,0 km/h (1 Bft)
28.12.2020 03:30 1,4 C 3,9 C 0,9 C 1,3 C 1,2 C 0,0 C 73 % 77 % 988,1 hPa 0,0 l/m 2,1 km/h (1 Bft) S-SO 157 0 min -2,9 C 1,2 C 2,3 km/h (1 Bft)
28.12.2020 03:35 1,4 C 3,9 C 0,9 C 1,3 C 1,2 C 0,0 C 73 % 77 % 988,1 hPa 0,0 l/m 1,4 km/h (1 Bft) O-SO 112 0 min -2,9 C 1,2 C 0,0 km/h (0 Bft)
28.12.2020 03:40 1,4 C 3,9 C 0,9 C 1,3 C 1,2 C 0,0 C 73 % 77 % 988,1 hPa 0,0 l/m 0,6 km/h (0 Bft) O-SO 112 0 min -2,9 C 1,2 C 0,0 km/h (0 Bft)
28.12.2020 03:45 1,5 C 3,9 C 0,9 C 1,4 C 1,1 C 0,0 C 74 % 78 % 988,1 hPa 0,0 l/m 0,5 km/h (0 Bft) N-NO 22 0 min -2,6 C 1,1 C 0,0 km/h (0 Bft)
28.12.2020 03:50 1,4 C 3,9 C 0,9 C 1,3 C 1,1 C 0,0 C 74 % 78 % 988,2 hPa 0,0 l/m 0,8 km/h (0 Bft) N-NO 22 0 min -2,7 C 1,1 C 3,2 km/h (1 Bft)
28.12.2020 03:55 1,5 C 3,9 C 1,1 C 1,4 C 1,2 C 0,0 C 74 % 78 % 988,2 hPa 0,0 l/m 1,3 km/h (1 Bft) W-SW 247 0 min -2,6 C 1,2 C 0,0 km/h (0 Bft)
28.12.2020 04:00 1,6 C 3,9 C 1,1 C 1,5 C 1,2 C 0,0 C 74 % 78 % 988,2 hPa 0,0 l/m 1,6 km/h (1 Bft) O-SO 112 0 min -2,5 C 1,2 C 1,6 km/h (1 Bft)
28.12.2020 04:05 1,6 C 3,9 C 1,1 C 1,5 C 1,3 C 0,0 C 74 % 78 % 988,2 hPa 0,0 l/m 1,1 km/h (1 Bft) W-NW 292 0 min -2,5 C 1,3 C 0,0 km/h (0 Bft)
28.12.2020 04:11 1,7 C 3,9 C 1,1 C 1,6 C 1,3 C 0,0 C 74 % 79 % 988,2 hPa 0,0 l/m 1,1 km/h (1 Bft) N 0 0 min -2,4 C 1,3 C 1,9 km/h (1 Bft)
28.12.2020 04:26 1,6 C 4,0 C 1,1 C 1,5 C 1,3 C 0,0 C 74 % 79 % 988,2 hPa 0,0 l/m 1,3 km/h (1 Bft) N-NO 22 0 min -2,5 C 1,3 C 2,1 km/h (1 Bft)
28.12.2020 04:40 1,7 C 4,0 C 1,2 C 1,6 C 1,5 C 0,0 C 75 % 79 % 987,6 hPa 0,0 l/m 1,3 km/h (1 Bft) O 90 0 min -2,2 C 1,5 C 1,6 km/h (1 Bft)
28.12.2020 04:45 1,7 C 4,0 C 1,2 C 1,6 C 1,5 C 0,0 C 75 % 79 % 987,6 hPa 0,0 l/m 0,6 km/h (0 Bft) S-SW 202 0 min -2,2 C 1,5 C 1,9 km/h (1 Bft)
28.12.2020 04:50 1,7 C 4,0 C 1,2 C 1,6 C 1,5 C 0,0 C 75 % 79 % 987,7 hPa 0,0 l/m 0,6 km/h (0 Bft) N-NO 22 0 min -2,2 C 1,5 C 2,1 km/h (1 Bft)
28.12.2020 04:55 1,7 C 4,0 C 1,2 C 1,6 C 1,5 C 0,0 C 75 % 79 % 987,7 hPa 0,0 l/m 0,5 km/h (0 Bft) O-NO 67 0 min -2,2 C 1,5 C 1,8 km/h (1 Bft)
28.12.2020 05:00 1,7 C 4,0 C 1,2 C 1,6 C 1,5 C 0,0 C 75 % 79 % 987,7 hPa 0,0 l/m 0,6 km/h (0 Bft) W 270 0 min -2,2 C 1,5 C 0,0 km/h (0 Bft)
28.12.2020 05:05 1,7 C 4,0 C 1,2 C 1,6 C 1,5 C 0,0 C 75 % 79 % 987,7 hPa 0,0 l/m 0,5 km/h (0 Bft) O-SO 112 0 min -2,2 C 1,5 C 1,8 km/h (1 Bft)
28.12.2020 05:10 1,7 C 4,0 C 1,2 C 1,6 C 1,5 C 0,0 C 75 % 79 % 986,9 hPa 0,0 l/m 0,5 km/h (0 Bft) O-SO 112 0 min -2,2 C 1,5 C 1,8 km/h (1 Bft)
28.12.2020 05:15 1,7 C 4,0 C 1,2 C 1,6 C 1,5 C 0,0 C 75 % 80 % 986,9 hPa 0,0 l/m 0,6 km/h (0 Bft) N-NO 22 0 min -2,2 C 1,5 C 1,8 km/h (1 Bft)
28.12.2020 05:20 1,7 C 4,0 C 1,2 C 1,6 C 1,5 C 0,0 C 76 % 80 % 986,9 hPa 0,0 l/m 0,8 km/h (0 Bft) NO 45 0 min -2,1 C 1,5 C 2,1 km/h (1 Bft)
28.12.2020 05:25 1,7 C 4,0 C 1,2 C 1,6 C 1,5 C 0,0 C 76 % 80 % 986,9 hPa 0,0 l/m 1,1 km/h (1 Bft) N-NO 22 0 min -2,1 C 1,5 C 2,9 km/h (1 Bft)
28.12.2020 05:30 1,8 C 4,0 C 1,3 C 1,7 C 1,6 C 0,0 C 76 % 80 % 986,9 hPa 0,0 l/m 1,8 km/h (1 Bft) O-NO 67 0 min -2,0 C 1,6 C 0,0 km/h (0 Bft)
28.12.2020 05:35 1,8 C 4,0 C 1,3 C 1,7 C 1,6 C 0,0 C 76 % 80 % 986,9 hPa 0,0 l/m 1,6 km/h (1 Bft) NO 45 0 min -2,0 C 1,6 C 0,0 km/h (0 Bft)
28.12.2020 05:40 1,9 C 4,0 C 1,2 C 1,8 C 1,6 C 0,0 C 76 % 80 % 986,9 hPa 0,0 l/m 0,6 km/h (0 Bft) O-NO 67 0 min -1,9 C 1,6 C 0,0 km/h (0 Bft)
28.12.2020 05:45 1,8 C 4,0 C 1,3 C 1,7 C 1,6 C 0,0 C 76 % 80 % 986,9 hPa 0,0 l/m 0,3 km/h (0 Bft) O-NO 67 0 min -2,0 C 1,6 C 0,0 km/h (0 Bft)
28.12.2020 05:50 1,8 C 4,0 C 1,2 C 1,7 C 1,6 C 0,0 C 76 % 80 % 987,1 hPa 0,0 l/m 0,2 km/h (0 Bft) O-SO 112 0 min -2,0 C 1,6 C 0,0 km/h (0 Bft)
28.12.2020 05:55 1,7 C 4,0 C 1,2 C 1,6 C 1,5 C 0,0 C 76 % 80 % 987,1 hPa 0,0 l/m 0,0 km/h (0 Bft) N-NO 22 0 min -2,1 C 1,5 C 0,0 km/h (0 Bft)
28.12.2020 06:00 1,7 C 4,0 C 1,1 C 1,6 C 1,5 C 0,0 C 76 % 80 % 987,1 hPa 0,0 l/m 0,0 km/h (0 Bft) O-NO 67 0 min -2,1 C 1,5 C 0,0 km/h (0 Bft)
28.12.2020 06:05 1,6 C 4,0 C 1,0 C 1,5 C 1,4 C 0,0 C 76 % 80 % 987,1 hPa 0,0 l/m 0,0 km/h (0 Bft) O-NO 67 0 min -2,2 C 1,4 C 0,0 km/h (0 Bft)
28.12.2020 06:11 1,6 C 4,0 C 0,9 C 1,5 C 1,2 C 0,0 C 76 % 80 % 987,2 hPa 0,0 l/m 0,2 km/h (0 Bft) N 0 0 min -2,2 C 1,2 C 0,0 km/h (0 Bft)
28.12.2020 06:26 1,6 C 4,0 C 1,1 C 1,4 C 1,1 C 0,0 C 76 % 80 % 987,2 hPa 0,0 l/m 0,3 km/h (0 Bft) O-NO 67 0 min -2,2 C 1,1 C 0,0 km/h (0 Bft)
28.12.2020 06:30 1,6 C 4,0 C 1,1 C 1,4 C 1,0 C 0,0 C 76 % 80 % 986,8 hPa 0,0 l/m 0,3 km/h (0 Bft) O-NO 67 0 min -2,2 C 1,0 C 0,0 km/h (0 Bft)
28.12.2020 06:35 1,6 C 4,0 C 0,9 C 1,4 C 0,9 C 0,0 C 76 % 80 % 986,8 hPa 0,0 l/m 0,5 km/h (0 Bft) O-SO 112 0 min -2,2 C 0,9 C 0,0 km/h (0 Bft)
28.12.2020 06:40 1,7 C 4,0 C 0,9 C 1,4 C 0,9 C 0,0 C 76 % 80 % 986,8 hPa 0,0 l/m 0,3 km/h (0 Bft) O-SO 112 0 min -2,1 C 0,9 C 0,0 km/h (0 Bft)
28.12.2020 06:45 1,6 C 4,0 C 0,9 C 1,3 C 0,8 C 0,0 C 76 % 81 % 986,8 hPa 0,0 l/m 0,5 km/h (0 Bft) O-NO 67 0 min -2,2 C 0,8 C 0,0 km/h (0 Bft)
28.12.2020 06:50 1,6 C 4,0 C 1,0 C 1,3 C 0,8 C 0,0 C 76 % 81 % 986,4 hPa 0,0 l/m 0,5 km/h (0 Bft) O-NO 67 0 min -2,2 C 0,8 C 0,0 km/h (0 Bft)
28.12.2020 06:55 1,6 C 4,0 C 0,8 C 1,3 C 0,7 C 0,0 C 76 % 80 % 986,4 hPa 0,0 l/m 0,6 km/h (0 Bft) N-NO 22 0 min -2,2 C 0,7 C 2,1 km/h (1 Bft)
28.12.2020 07:00 1,6 C 4,0 C 0,7 C 1,3 C 0,7 C 0,0 C 76 % 81 % 986,4 hPa 0,0 l/m 0,6 km/h (0 Bft) N-NO 22 0 min -2,2 C 0,7 C 0,0 km/h (0 Bft)
28.12.2020 07:05 1,6 C 4,0 C 0,5 C 1,3 C 0,7 C 0,0 C 76 % 81 % 986,4 hPa 0,0 l/m 0,6 km/h (0 Bft) O-NO 67 0 min -2,2 C 0,7 C 2,1 km/h (1 Bft)
28.12.2020 07:10 1,5 C 4,0 C 0,5 C 1,2 C 0,6 C 0,0 C 76 % 81 % 986,4 hPa 0,0 l/m 0,6 km/h (0 Bft) S 180 0 min -2,3 C 0,6 C 0,0 km/h (0 Bft)
28.12.2020 07:15 1,5 C 4,0 C 0,3 C 1,1 C 0,4 C 0,0 C 76 % 81 % 986,4 hPa 0,0 l/m 0,3 km/h (0 Bft) S 180 0 min -2,3 C 0,4 C 2,4 km/h (1 Bft)
28.12.2020 07:20 1,5 C 4,0 C 0,3 C 1,1 C 0,4 C 0,0 C 77 % 82 % 986,4 hPa 0,0 l/m 0,5 km/h (0 Bft) W-SW 247 0 min -2,1 C 0,4 C 0,0 km/h (0 Bft)
28.12.2020 07:25 1,4 C 4,0 C 0,1 C 1,1 C 0,4 C 0,0 C 76 % 82 % 986,4 hPa 0,0 l/m 0,5 km/h (0 Bft) W-SW 247 0 min -2,4 C 0,4 C 0,0 km/h (0 Bft)
28.12.2020 07:30 1,5 C 4,0 C 0,2 C 1,1 C 0,3 C 0,0 C 76 % 82 % 986,5 hPa 0,0 l/m 0,2 km/h (0 Bft) O-NO 67 0 min -2,3 C 0,3 C 1,6 km/h (1 Bft)
28.12.2020 07:35 1,4 C 4,0 C 0,4 C 1,1 C 0,4 C 0,0 C 77 % 82 % 986,5 hPa 0,0 l/m 0,2 km/h (0 Bft) S 180 0 min -2,2 C 0,4 C 2,1 km/h (1 Bft)
28.12.2020 07:40 1,5 C 4,0 C 0,5 C 1,2 C 0,5 C 0,0 C 77 % 82 % 986,5 hPa 0,0 l/m 0,2 km/h (0 Bft) O-NO 67 0 min -2,1 C 0,5 C 0,0 km/h (0 Bft)
28.12.2020 07:45 1,6 C 4,0 C 0,5 C 1,2 C 0,5 C 0,0 C 77 % 83 % 986,5 hPa 0,0 l/m 0,2 km/h (0 Bft) W-NW 292 0 min -2,0 C 0,5 C 0,0 km/h (0 Bft)
28.12.2020 07:50 1,7 C 4,0 C 0,7 C 1,4 C 0,7 C 0,0 C 77 % 83 % 986,7 hPa 0,0 l/m 0,2 km/h (0 Bft) O-NO 67 0 min -1,9 C 0,7 C 1,8 km/h (1 Bft)
28.12.2020 07:55 1,7 C 4,0 C 0,7 C 1,4 C 0,9 C 0,0 C 77 % 83 % 986,7 hPa 0,0 l/m 0,3 km/h (0 Bft) O-NO 67 0 min -1,9 C 0,9 C 2,1 km/h (1 Bft)
28.12.2020 08:00 1,7 C 4,0 C 0,8 C 1,4 C 0,9 C 0,0 C 77 % 83 % 986,7 hPa 0,0 l/m 0,2 km/h (0 Bft) NO 45 0 min -1,9 C 0,9 C 0,0 km/h (0 Bft)
28.12.2020 08:05 1,7 C 4,0 C 0,9 C 1,4 C 0,9 C 0,0 C 77 % 83 % 986,7 hPa 0,0 l/m 0,5 km/h (0 Bft) S 180 0 min -1,9 C 0,9 C 2,1 km/h (1 Bft)
28.12.2020 08:10 1,9 C 4,0 C 1,1 C 1,6 C 1,0 C 0,0 C 78 % 83 % 986,9 hPa 0,0 l/m 0,6 km/h (0 Bft) O 90 0 min -1,5 C 1,0 C 0,0 km/h (0 Bft)
28.12.2020 08:15 2,0 C 4,1 C 1,3 C 1,7 C 1,2 C 0,0 C 78 % 83 % 986,9 hPa 0,0 l/m 1,1 km/h (1 Bft) O-NO 67 0 min -1,4 C 1,2 C 2,6 km/h (1 Bft)
28.12.2020 08:20 2,0 C 4,1 C 1,4 C 1,8 C 1,4 C 0,0 C 78 % 83 % 986,9 hPa 0,0 l/m 1,1 km/h (1 Bft) O-NO 67 0 min -1,4 C 1,4 C 2,1 km/h (1 Bft)
28.12.2020 08:25 2,1 C 4,1 C 1,6 C 1,9 C 1,5 C 0,0 C 78 % 82 % 986,9 hPa 0,0 l/m 1,6 km/h (1 Bft) O-NO 67 0 min -1,3 C 1,5 C 0,0 km/h (0 Bft)
28.12.2020 08:30 2,3 C 4,1 C 1,6 C 2,0 C 1,5 C 0,0 C 78 % 82 % 986,9 hPa 0,0 l/m 1,6 km/h (1 Bft) O-NO 67 0 min -1,1 C 1,5 C 2,4 km/h (1 Bft)
28.12.2020 08:35 2,2 C 4,1 C 1,7 C 2,0 C 1,6 C 0,0 C 78 % 81 % 986,9 hPa 0,0 l/m 1,4 km/h (1 Bft) O-NO 67 0 min -1,2 C 1,6 C 3,4 km/h (1 Bft)
28.12.2020 08:40 2,3 C 4,1 C 1,9 C 2,1 C 1,7 C 0,0 C 78 % 81 % 986,9 hPa 0,0 l/m 1,6 km/h (1 Bft) O-NO 67 0 min -1,1 C 1,7 C 3,1 km/h (1 Bft)
28.12.2020 08:45 2,5 C 4,1 C 1,9 C 2,3 C 1,9 C 0,0 C 78 % 81 % 986,9 hPa 0,0 l/m 1,6 km/h (1 Bft) O 90 0 min -0,9 C 1,9 C 2,4 km/h (1 Bft)
28.12.2020 08:50 2,4 C 4,1 C 1,9 C 2,3 C 2,0 C 0,0 C 77 % 81 % 986,6 hPa 0,0 l/m 1,8 km/h (1 Bft) O-SO 112 0 min -1,2 C 2,0 C 2,9 km/h (1 Bft)
28.12.2020 08:55 2,4 C 4,1 C 1,9 C 2,3 C 2,0 C 0,0 C 77 % 81 % 986,6 hPa 0,0 l/m 1,6 km/h (1 Bft) O-NO 67 0 min -1,2 C 2,0 C 3,7 km/h (1 Bft)
28.12.2020 09:00 2,5 C 4,1 C 1,9 C 2,3 C 2,0 C 0,0 C 77 % 81 % 986,6 hPa 0,0 l/m 2,1 km/h (1 Bft) O-SO 112 0 min -1,1 C 2,0 C 1,6 km/h (1 Bft)
28.12.2020 09:05 2,5 C 4,1 C 1,9 C 2,4 C 2,1 C 0,0 C 77 % 81 % 986,6 hPa 0,0 l/m 1,9 km/h (1 Bft) O-NO 67 0 min -1,1 C 2,1 C 2,3 km/h (1 Bft)
28.12.2020 09:10 2,6 C 4,1 C 1,9 C 2,4 C 2,1 C 0,0 C 77 % 81 % 987,0 hPa 0,0 l/m 1,1 km/h (1 Bft) O-NO 67 0 min -1,0 C 2,1 C 1,8 km/h (1 Bft)
28.12.2020 09:15 2,6 C 4,1 C 1,9 C 2,5 C 2,2 C 0,0 C 77 % 81 % 987,0 hPa 0,0 l/m 0,6 km/h (0 Bft) N-NW 337 0 min -1,0 C 2,2 C 2,3 km/h (1 Bft)
28.12.2020 09:20 2,7 C 4,1 C 2,0 C 2,6 C 2,3 C 0,0 C 77 % 81 % 987,0 hPa 0,0 l/m 0,6 km/h (0 Bft) O 90 0 min -0,9 C 2,3 C 0,0 km/h (0 Bft)
28.12.2020 09:25 2,7 C 4,1 C 2,1 C 2,6 C 2,5 C 0,0 C 77 % 81 % 987,0 hPa 0,0 l/m 0,6 km/h (0 Bft) O-NO 67 0 min -0,9 C 2,5 C 0,0 km/h (0 Bft)
28.12.2020 09:30 2,7 C 4,1 C 2,1 C 2,7 C 2,6 C 0,0 C 77 % 81 % 986,9 hPa 0,0 l/m 0,5 km/h (0 Bft) O-NO 67 0 min -0,9 C 2,6 C 0,0 km/h (0 Bft)
28.12.2020 09:35 2,8 C 4,1 C 2,2 C 2,7 C 2,6 C 0,0 C 77 % 81 % 986,9 hPa 0,0 l/m 0,5 km/h (0 Bft) O-NO 67 0 min -0,8 C 2,6 C 0,0 km/h (0 Bft)
28.12.2020 09:40 2,9 C 4,1 C 2,2 C 2,8 C 2,6 C 0,0 C 77 % 81 % 986,9 hPa 0,0 l/m 0,3 km/h (0 Bft) O-NO 67 0 min -0,7 C 2,6 C 1,8 km/h (1 Bft)
28.12.2020 09:45 2,8 C 4,1 C 2,2 C 2,8 C 2,7 C 0,0 C 76 % 81 % 986,9 hPa 0,0 l/m 0,6 km/h (0 Bft) SW 225 0 min -1,0 C 2,7 C 2,6 km/h (1 Bft)
28.12.2020 09:50 2,8 C 4,1 C 2,2 C 2,8 C 2,8 C 0,0 C 76 % 81 % 987,0 hPa 0,0 l/m 1,0 km/h (0 Bft) N-NO 22 0 min -1,0 C 2,8 C 0,0 km/h (0 Bft)
28.12.2020 09:55 2,8 C 4,1 C 2,2 C 2,8 C 2,8 C 0,0 C 76 % 81 % 987,0 hPa 0,0 l/m 1,3 km/h (1 Bft) O-NO 67 0 min -1,0 C 2,8 C 2,1 km/h (1 Bft)
28.12.2020 10:00 2,8 C 4,1 C 2,3 C 2,9 C 2,9 C 0,1 C 76 % 81 % 987,0 hPa 0,0 l/m 1,1 km/h (1 Bft) O-NO 67 0 min -1,0 C 2,9 C 1,8 km/h (1 Bft)
28.12.2020 10:05 2,8 C 4,1 C 2,3 C 2,9 C 2,9 C 0,1 C 76 % 80 % 987,0 hPa 0,0 l/m 0,8 km/h (0 Bft) SO 135 0 min -1,0 C 2,9 C 1,6 km/h (1 Bft)
28.12.2020 10:10 2,8 C 4,1 C 2,3 C 2,9 C 2,9 C 0,1 C 76 % 80 % 987,4 hPa 0,0 l/m 1,3 km/h (1 Bft) NO 45 0 min -1,0 C 2,9 C 3,1 km/h (1 Bft)
28.12.2020 10:15 2,8 C 4,1 C 2,4 C 3,0 C 3,0 C 0,2 C 76 % 80 % 987,4 hPa 0,0 l/m 1,9 km/h (1 Bft) O-NO 67 0 min -1,0 C 3,0 C 2,3 km/h (1 Bft)
28.12.2020 10:20 2,8 C 4,1 C 2,4 C 3,0 C 3,0 C 0,2 C 76 % 80 % 987,4 hPa 0,0 l/m 1,6 km/h (1 Bft) O-NO 67 0 min -1,0 C 3,0 C 0,0 km/h (0 Bft)
28.12.2020 10:25 2,8 C 4,1 C 2,5 C 3,1 C 3,1 C 0,3 C 76 % 80 % 987,4 hPa 0,0 l/m 1,6 km/h (1 Bft) N-NO 22 0 min -1,0 C 3,1 C 3,4 km/h (1 Bft)
28.12.2020 10:30 2,8 C 4,1 C 2,5 C 3,1 C 3,1 C 0,3 C 76 % 80 % 987,2 hPa 0,0 l/m 2,3 km/h (1 Bft) O 90 0 min -1,0 C 3,1 C 9,5 km/h (2 Bft)
28.12.2020 10:35 2,8 C 4,1 C 2,6 C 3,2 C 3,2 C 0,4 C 76 % 80 % 987,2 hPa 0,0 l/m 2,1 km/h (1 Bft) S 180 0 min -1,0 C 3,2 C 6,3 km/h (2 Bft)
28.12.2020 10:40 2,8 C 4,1 C 2,7 C 3,3 C 3,3 C 0,5 C 76 % 79 % 987,2 hPa 0,0 l/m 2,3 km/h (1 Bft) NO 45 0 min -1,0 C 3,3 C 2,1 km/h (1 Bft)
28.12.2020 10:45 2,9 C 4,1 C 2,7 C 3,4 C 3,4 C 0,5 C 76 % 79 % 987,2 hPa 0,0 l/m 2,4 km/h (1 Bft) S-SO 157 0 min -0,9 C 3,4 C 3,2 km/h (1 Bft)
28.12.2020 10:50 2,9 C 4,1 C 2,7 C 3,5 C 3,5 C 0,6 C 76 % 79 % 987,3 hPa 0,0 l/m 1,6 km/h (1 Bft) S-SW 202 0 min -0,9 C 3,5 C 0,0 km/h (0 Bft)
28.12.2020 10:55 3,0 C 4,1 C 2,8 C 3,7 C 3,7 C 0,7 C 76 % 79 % 987,3 hPa 0,0 l/m 1,1 km/h (1 Bft) S 180 0 min -0,8 C 3,7 C 3,4 km/h (1 Bft)
28.12.2020 11:00 3,1 C 4,1 C 2,8 C 3,7 C 3,7 C 0,6 C 76 % 79 % 987,3 hPa 0,0 l/m 1,4 km/h (1 Bft) O-NO 67 0 min -0,7 C 3,7 C 2,4 km/h (1 Bft)
28.12.2020 11:05 3,0 C 4,1 C 2,8 C 3,7 C 3,7 C 0,7 C 76 % 78 % 987,3 hPa 0,0 l/m 1,8 km/h (1 Bft) O-SO 112 0 min -0,8 C 3,7 C 0,0 km/h (0 Bft)
28.12.2020 11:10 3,0 C 4,1 C 2,8 C 3,7 C 3,7 C 0,7 C 76 % 78 % 986,9 hPa 0,0 l/m 1,8 km/h (1 Bft) O-SO 112 0 min -0,8 C 3,7 C 0,0 km/h (0 Bft)
28.12.2020 11:15 3,1 C 4,2 C 2,8 C 3,7 C 3,7 C 0,6 C 75 % 79 % 986,9 hPa 0,0 l/m 2,1 km/h (1 Bft) S 180 0 min -0,9 C 3,7 C 3,2 km/h (1 Bft)
28.12.2020 11:20 3,1 C 4,2 C 2,8 C 3,7 C 3,7 C 0,6 C 75 % 79 % 986,9 hPa 0,0 l/m 1,3 km/h (1 Bft) O-NO 67 0 min -0,9 C 3,7 C 0,0 km/h (0 Bft)
28.12.2020 11:25 3,1 C 4,2 C 2,9 C 3,7 C 3,7 C 0,6 C 75 % 78 % 986,9 hPa 0,0 l/m 1,1 km/h (1 Bft) NO 45 0 min -0,9 C 3,7 C 1,8 km/h (1 Bft)
28.12.2020 11:30 3,1 C 4,2 C 3,0 C 3,7 C 3,7 C 0,6 C 75 % 79 % 986,8 hPa 0,0 l/m 1,1 km/h (1 Bft) O-SO 112 0 min -0,9 C 3,7 C 3,2 km/h (1 Bft)
28.12.2020 11:35 3,1 C 4,2 C 3,0 C 3,7 C 3,7 C 0,6 C 76 % 79 % 986,8 hPa 0,0 l/m 1,1 km/h (1 Bft) O 90 0 min -0,7 C 3,7 C 2,6 km/h (1 Bft)
28.12.2020 11:40 3,1 C 4,2 C 3,0 C 3,8 C 3,8 C 0,7 C 75 % 78 % 986,8 hPa 0,0 l/m 1,3 km/h (1 Bft) N-NW 337 0 min -0,9 C 3,8 C 2,9 km/h (1 Bft)
28.12.2020 11:45 3,1 C 4,2 C 3,1 C 3,8 C 3,8 C 0,7 C 75 % 78 % 986,8 hPa 0,0 l/m 1,6 km/h (1 Bft) O-NO 67 0 min -0,9 C 3,8 C 2,9 km/h (1 Bft)
28.12.2020 11:50 3,1 C 4,2 C 3,0 C 3,9 C 3,9 C 0,8 C 75 % 78 % 986,8 hPa 0,0 l/m 2,1 km/h (1 Bft) SW 225 0 min -0,9 C 3,9 C 1,9 km/h (1 Bft)
28.12.2020 11:55 3,2 C 4,2 C 3,1 C 4,0 C 4,0 C 0,8 C 75 % 78 % 986,8 hPa 0,0 l/m 2,4 km/h (1 Bft) O-NO 67 0 min -0,8 C 4,0 C 2,3 km/h (1 Bft)
28.12.2020 12:00 3,2 C 4,2 C 3,1 C 4,0 C 4,0 C 0,8 C 76 % 78 % 986,8 hPa 0,0 l/m 2,3 km/h (1 Bft) O-NO 67 0 min -0,6 C 4,0 C 3,2 km/h (1 Bft)
28.12.2020 12:05 3,3 C 4,2 C 3,1 C 4,2 C 4,2 C 0,9 C 76 % 78 % 986,8 hPa 0,0 l/m 1,9 km/h (1 Bft) S-SW 202 0 min -0,5 C 4,2 C 2,3 km/h (1 Bft)
28.12.2020 12:10 3,2 C 4,2 C 3,2 C 4,5 C 4,5 C 1,3 C 75 % 78 % 986,6 hPa 0,0 l/m 1,9 km/h (1 Bft) O-NO 67 0 min -0,8 C 4,5 C 3,2 km/h (1 Bft)
28.12.2020 12:15 3,3 C 4,2 C 3,3 C 4,8 C 4,8 C 1,5 C 76 % 77 % 986,6 hPa 0,0 l/m 1,4 km/h (1 Bft) O-NO 67 0 min -0,5 C 4,8 C 2,9 km/h (1 Bft)
28.12.2020 12:20 3,4 C 4,2 C 3,3 C 4,7 C 4,7 C 1,3 C 76 % 77 % 986,6 hPa 0,0 l/m 1,1 km/h (1 Bft) O 90 0 min -0,4 C 4,7 C 0,0 km/h (0 Bft)
28.12.2020 12:25 3,5 C 4,2 C 3,4 C 4,8 C 4,8 C 1,3 C 76 % 77 % 986,6 hPa 0,0 l/m 1,1 km/h (1 Bft) NO 45 0 min -0,3 C 4,8 C 2,1 km/h (1 Bft)
28.12.2020 12:30 3,4 C 4,2 C 3,4 C 4,7 C 4,7 C 1,3 C 76 % 77 % 986,3 hPa 0,0 l/m 1,6 km/h (1 Bft) N-NO 22 0 min -0,4 C 4,7 C 3,1 km/h (1 Bft)
28.12.2020 12:35 3,5 C 4,2 C 3,5 C 5,0 C 5,0 C 1,5 C 76 % 77 % 986,3 hPa 0,0 l/m 1,9 km/h (1 Bft) O-NO 67 0 min -0,3 C 5,0 C 3,4 km/h (1 Bft)
28.12.2020 12:40 3,6 C 4,2 C 3,6 C 5,2 C 5,2 C 1,6 C 75 % 77 % 986,3 hPa 0,0 l/m 1,4 km/h (1 Bft) O-NO 67 0 min -0,4 C 5,2 C 2,9 km/h (1 Bft)
28.12.2020 12:45 3,6 C 4,2 C 3,7 C 5,4 C 5,4 C 1,8 C 75 % 77 % 986,3 hPa 0,0 l/m 2,3 km/h (1 Bft) N-NO 22 0 min -0,4 C 5,4 C 3,1 km/h (1 Bft)
28.12.2020 12:50 3,8 C 4,2 C 3,8 C 5,6 C 5,6 C 1,8 C 75 % 76 % 985,9 hPa 0,0 l/m 2,4 km/h (1 Bft) W-SW 247 0 min -0,2 C 5,6 C 2,3 km/h (1 Bft)
28.12.2020 12:55 3,8 C 4,3 C 3,9 C 5,8 C 5,8 C 2,0 C 75 % 76 % 985,9 hPa 0,0 l/m 1,4 km/h (1 Bft) NO 45 0 min -0,2 C 5,8 C 2,9 km/h (1 Bft)
28.12.2020 13:00 3,9 C 4,3 C 3,9 C 5,9 C 5,9 C 2,0 C 74 % 76 % 985,9 hPa 0,0 l/m 1,3 km/h (1 Bft) O-SO 112 0 min -0,3 C 5,9 C 0,0 km/h (0 Bft)
28.12.2020 13:05 4,0 C 4,3 C 3,9 C 6,2 C 6,2 C 2,2 C 74 % 76 % 985,9 hPa 0,0 l/m 1,6 km/h (1 Bft) O 90 0 min -0,2 C 6,2 C 0,0 km/h (0 Bft)
28.12.2020 13:10 4,1 C 4,3 C 3,9 C 6,3 C 6,3 C 2,2 C 74 % 76 % 986,1 hPa 0,0 l/m 1,3 km/h (1 Bft) NO 45 0 min -0,1 C 6,3 C 2,1 km/h (1 Bft)
28.12.2020 13:15 4,2 C 4,3 C 4,0 C 6,3 C 6,3 C 2,1 C 74 % 76 % 986,1 hPa 0,0 l/m 1,4 km/h (1 Bft) O-NO 67 0 min -0,0 C 6,3 C 5,8 km/h (2 Bft)
28.12.2020 13:20 4,3 C 4,3 C 4,0 C 6,2 C 6,2 C 1,9 C 74 % 76 % 986,1 hPa 0,0 l/m 1,9 km/h (1 Bft) NW 315 0 min 0,1 C 6,2 C 2,1 km/h (1 Bft)
28.12.2020 13:25 4,3 C 4,3 C 4,0 C 6,1 C 6,1 C 1,8 C 74 % 76 % 986,1 hPa 0,0 l/m 1,9 km/h (1 Bft) N-NO 22 0 min 0,1 C 6,1 C 0,0 km/h (0 Bft)
28.12.2020 13:30 4,4 C 4,3 C 4,0 C 6,2 C 6,2 C 1,8 C 73 % 76 % 986,0 hPa 0,0 l/m 1,1 km/h (1 Bft) O 90 0 min -0,0 C 6,2 C 1,6 km/h (1 Bft)
28.12.2020 13:35 4,4 C 4,3 C 4,1 C 6,1 C 6,1 C 1,7 C 73 % 76 % 986,0 hPa 0,0 l/m 0,6 km/h (0 Bft) NO 45 0 min -0,0 C 6,1 C 1,8 km/h (1 Bft)
28.12.2020 13:40 4,5 C 4,3 C 4,0 C 6,1 C 6,1 C 1,6 C 73 % 76 % 986,0 hPa 0,0 l/m 1,0 km/h (0 Bft) O-SO 112 0 min 0,1 C 6,1 C 2,7 km/h (1 Bft)
28.12.2020 13:45 4,5 C 4,3 C 3,9 C 6,0 C 6,0 C 1,5 C 73 % 76 % 986,0 hPa 0,0 l/m 1,3 km/h (1 Bft) O 90 0 min 0,1 C 6,0 C 0,0 km/h (0 Bft)
28.12.2020 13:50 4,4 C 4,3 C 3,9 C 5,8 C 5,8 C 1,4 C 73 % 76 % 986,3 hPa 0,0 l/m 1,4 km/h (1 Bft) O-NO 67 0 min -0,0 C 5,8 C 4,7 km/h (1 Bft)
28.12.2020 13:55 4,4 C 4,3 C 3,9 C 5,6 C 5,6 C 1,2 C 73 % 76 % 986,3 hPa 0,0 l/m 2,3 km/h (1 Bft) NO 45 0 min -0,0 C 5,6 C 5,3 km/h (1 Bft)
28.12.2020 14:00 4,4 C 4,3 C 3,8 C 5,5 C 5,5 C 1,1 C 73 % 76 % 986,3 hPa 0,0 l/m 2,4 km/h (1 Bft) O-NO 67 0 min -0,0 C 5,5 C 0,0 km/h (0 Bft)
28.12.2020 14:05 4,3 C 4,3 C 3,9 C 5,3 C 5,3 C 1,0 C 73 % 76 % 986,3 hPa 0,0 l/m 1,6 km/h (1 Bft) O-NO 67 0 min -0,1 C 5,3 C 0,0 km/h (0 Bft)
28.12.2020 14:10 4,4 C 4,4 C 3,8 C 5,3 C 5,3 C 0,9 C 73 % 77 % 986,2 hPa 0,0 l/m 1,6 km/h (1 Bft) NO 45 0 min -0,0 C 5,3 C 3,9 km/h (1 Bft)
28.12.2020 14:15 4,3 C 4,4 C 3,8 C 5,2 C 5,2 C 0,9 C 73 % 77 % 986,2 hPa 0,0 l/m 2,4 km/h (1 Bft) N-NO 22 0 min -0,1 C 5,2 C 2,9 km/h (1 Bft)
28.12.2020 14:20 4,3 C 4,4 C 3,9 C 5,2 C 5,2 C 0,9 C 73 % 77 % 986,2 hPa 0,0 l/m 2,9 km/h (1 Bft) O-NO 67 0 min -0,1 C 5,2 C 0,0 km/h (0 Bft)
28.12.2020 14:25 4,3 C 4,4 C 3,8 C 5,0 C 5,0 C 0,7 C 73 % 77 % 986,2 hPa 0,0 l/m 2,4 km/h (1 Bft) NO 45 0 min -0,1 C 5,0 C 2,3 km/h (1 Bft)
28.12.2020 14:30 4,2 C 4,4 C 3,7 C 4,8 C 4,8 C 0,6 C 73 % 77 % 986,2 hPa 0,0 l/m 2,3 km/h (1 Bft) NO 45 0 min -0,2 C 4,8 C 4,0 km/h (1 Bft)
28.12.2020 14:35 4,2 C 4,4 C 3,7 C 4,7 C 4,7 C 0,5 C 73 % 78 % 986,2 hPa 0,0 l/m 3,1 km/h (1 Bft) O-NO 67 0 min -0,2 C 4,7 C 4,3 km/h (1 Bft)
28.12.2020 14:40 4,0 C 4,4 C 3,5 C 3,9 C 3,6 C 0,0 C 73 % 78 % 986,2 hPa 0,0 l/m 4,2 km/h (1 Bft) O-NO 67 0 min -0,4 C 3,6 C 6,4 km/h (2 Bft)
28.12.2020 14:45 3,7 C 4,4 C 3,2 C 3,4 C 2,8 C 0,0 C 74 % 78 % 986,2 hPa 0,0 l/m 4,8 km/h (1 Bft) NO 45 0 min -0,5 C 1,7 C 4,8 km/h (1 Bft)
28.12.2020 14:50 3,6 C 4,5 C 3,1 C 3,3 C 2,6 C 0,0 C 74 % 79 % 985,9 hPa 0,0 l/m 5,1 km/h (1 Bft) O-NO 67 0 min -0,6 C 1,3 C 5,5 km/h (1 Bft)
28.12.2020 14:55 3,5 C 4,5 C 3,0 C 3,0 C 2,0 C 0,0 C 74 % 79 % 985,9 hPa 0,0 l/m 5,6 km/h (1 Bft) O-NO 67 0 min -0,7 C 0,4 C 6,9 km/h (2 Bft)
28.12.2020 15:00 3,3 C 4,5 C 2,9 C 2,8 C 1,9 C 0,0 C 75 % 79 % 985,9 hPa 0,0 l/m 5,3 km/h (1 Bft) O-NO 67 0 min -0,7 C 0,4 C 6,8 km/h (2 Bft)
28.12.2020 15:05 3,1 C 4,5 C 2,7 C 2,6 C 1,6 C 0,0 C 75 % 80 % 985,9 hPa 0,0 l/m 5,8 km/h (2 Bft) O-NO 67 0 min -0,9 C -0,1 C 8,5 km/h (2 Bft)
28.12.2020 15:10 3,1 C 4,5 C 2,6 C 2,4 C 1,1 C 0,0 C 75 % 80 % 985,9 hPa 0,0 l/m 6,4 km/h (2 Bft) NO 45 0 min -0,9 C -0,9 C 6,1 km/h (2 Bft)
28.12.2020 15:15 2,9 C 4,5 C 2,6 C 2,4 C 1,5 C 0,0 C 76 % 80 % 985,9 hPa 0,0 l/m 5,1 km/h (1 Bft) O-NO 67 0 min -0,9 C 0,1 C 4,2 km/h (1 Bft)
28.12.2020 15:20 2,8 C 4,5 C 2,5 C 2,5 C 1,8 C 0,0 C 76 % 81 % 985,9 hPa 0,0 l/m 4,5 km/h (1 Bft) O-NO 67 0 min -1,0 C 1,8 C 5,5 km/h (1 Bft)
28.12.2020 15:25 2,8 C 4,5 C 2,4 C 2,4 C 1,6 C 0,0 C 77 % 81 % 985,9 hPa 0,0 l/m 4,8 km/h (1 Bft) NO 45 0 min -0,8 C 0,3 C 5,5 km/h (1 Bft)
28.12.2020 15:30 2,8 C 4,5 C 2,5 C 2,3 C 1,4 C 0,0 C 77 % 81 % 985,9 hPa 0,0 l/m 5,3 km/h (1 Bft) O-NO 67 0 min -0,8 C -0,1 C 5,6 km/h (1 Bft)
28.12.2020 15:35 2,8 C 4,5 C 2,5 C 2,3 C 1,4 C 0,0 C 77 % 81 % 985,9 hPa 0,0 l/m 5,1 km/h (1 Bft) O-NO 67 0 min -0,8 C -0,0 C 4,0 km/h (1 Bft)
28.12.2020 15:40 2,7 C 4,5 C 2,4 C 2,3 C 1,6 C 0,0 C 77 % 81 % 985,9 hPa 0,0 l/m 4,7 km/h (1 Bft) O-NO 67 0 min -0,9 C 0,4 C 5,6 km/h (1 Bft)
28.12.2020 15:45 2,6 C 4,5 C 2,3 C 2,3 C 1,7 C 0,0 C 77 % 81 % 985,9 hPa 0,0 l/m 4,3 km/h (1 Bft) NO 45 0 min -1,0 C 1,7 C 5,0 km/h (1 Bft)
28.12.2020 15:50 2,6 C 4,5 C 2,3 C 2,3 C 1,8 C 0,0 C 77 % 81 % 986,0 hPa 0,0 l/m 4,0 km/h (1 Bft) NO 45 0 min -1,0 C 1,8 C 2,9 km/h (1 Bft)
28.12.2020 15:55 2,7 C 4,5 C 2,3 C 2,7 C 2,6 C 0,0 C 77 % 81 % 986,0 hPa 0,0 l/m 2,4 km/h (1 Bft) O 90 0 min -0,9 C 2,6 C 0,0 km/h (0 Bft)
28.12.2020 16:00 2,7 C 4,5 C 2,3 C 2,7 C 2,6 C 0,0 C 78 % 81 % 986,0 hPa 0,0 l/m 1,9 km/h (1 Bft) O 90 0 min -0,7 C 2,6 C 0,0 km/h (0 Bft)
28.12.2020 16:05 2,5 C 4,5 C 2,3 C 2,5 C 2,5 C 0,0 C 78 % 81 % 986,0 hPa 0,0 l/m 1,6 km/h (1 Bft) O-NO 67 0 min -0,9 C 2,5 C 3,5 km/h (1 Bft)
28.12.2020 16:10 2,5 C 4,5 C 2,1 C 2,5 C 2,4 C 0,0 C 78 % 82 % 985,8 hPa 0,0 l/m 1,9 km/h (1 Bft) NO 45 0 min -0,9 C 2,4 C 2,9 km/h (1 Bft)
28.12.2020 16:15 2,4 C 4,6 C 2,1 C 2,2 C 1,9 C 0,0 C 78 % 82 % 985,8 hPa 0,0 l/m 3,4 km/h (1 Bft) O-NO 67 0 min -1,0 C 1,9 C 5,5 km/h (1 Bft)
28.12.2020 16:20 2,4 C 4,6 C 2,1 C 2,2 C 1,7 C 0,0 C 78 % 82 % 985,8 hPa 0,0 l/m 3,9 km/h (1 Bft) NO 45 0 min -1,0 C 1,7 C 3,9 km/h (1 Bft)
28.12.2020 16:25 2,4 C 4,6 C 2,1 C 2,1 C 1,6 C 0,0 C 78 % 82 % 985,8 hPa 0,0 l/m 4,0 km/h (1 Bft) NO 45 0 min -1,0 C 1,6 C 4,5 km/h (1 Bft)
28.12.2020 16:30 2,4 C 4,6 C 2,1 C 2,1 C 1,5 C 0,0 C 78 % 82 % 985,8 hPa 0,0 l/m 4,2 km/h (1 Bft) NO 45 0 min -1,0 C 1,5 C 4,5 km/h (1 Bft)
28.12.2020 16:35 2,5 C 4,6 C 2,1 C 2,1 C 1,2 C 0,0 C 78 % 82 % 985,8 hPa 0,0 l/m 4,8 km/h (1 Bft) O-NO 67 0 min -0,9 C -0,1 C 4,2 km/h (1 Bft)
28.12.2020 16:40 2,4 C 4,6 C 2,1 C 1,9 C 0,9 C 0,0 C 78 % 82 % 985,8 hPa 0,0 l/m 5,8 km/h (2 Bft) NO 45 0 min -1,0 C -0,9 C 10,8 km/h (2 Bft)
28.12.2020 16:45 2,4 C 4,6 C 2,1 C 1,8 C 0,6 C 0,0 C 78 % 82 % 985,8 hPa 0,0 l/m 6,6 km/h (2 Bft) NO 45 0 min -1,0 C -1,6 C 7,1 km/h (2 Bft)
28.12.2020 16:50 2,4 C 4,6 C 2,1 C 1,8 C 0,6 C 0,0 C 78 % 82 % 986,1 hPa 0,0 l/m 6,6 km/h (2 Bft) NO 45 0 min -1,0 C -1,6 C 8,7 km/h (2 Bft)
28.12.2020 16:55 2,5 C 4,6 C 2,1 C 2,0 C 0,9 C 0,0 C 78 % 81 % 986,1 hPa 0,0 l/m 6,1 km/h (2 Bft) NO 45 0 min -0,9 C -1,0 C 6,3 km/h (2 Bft)
28.12.2020 17:00 2,5 C 4,6 C 2,1 C 1,9 C 0,7 C 0,0 C 78 % 81 % 986,1 hPa 0,0 l/m 6,6 km/h (2 Bft) O-NO 67 0 min -0,9 C -1,4 C 7,6 km/h (2 Bft)
28.12.2020 17:05 2,5 C 4,6 C 2,2 C 1,9 C 0,8 C 0,0 C 78 % 81 % 986,1 hPa 0,0 l/m 6,4 km/h (2 Bft) O-NO 67 0 min -0,9 C -1,3 C 7,1 km/h (2 Bft)
28.12.2020 17:10 2,5 C 4,6 C 2,2 C 2,0 C 1,1 C 0,0 C 78 % 81 % 986,1 hPa 0,0 l/m 5,8 km/h (2 Bft) NO 45 0 min -0,9 C -0,7 C 6,3 km/h (2 Bft)
28.12.2020 17:15 2,6 C 4,6 C 2,2 C 2,0 C 0,8 C 0,0 C 78 % 81 % 986,1 hPa 0,0 l/m 6,4 km/h (2 Bft) O-NO 67 0 min -0,8 C -1,3 C 11,3 km/h (2 Bft)
28.12.2020 17:20 2,7 C 4,6 C 2,2 C 2,1 C 0,8 C 0,0 C 78 % 81 % 986,1 hPa 0,0 l/m 6,8 km/h (2 Bft) NO 45 0 min -0,7 C -1,4 C 9,2 km/h (2 Bft)
28.12.2020 17:25 2,7 C 4,6 C 2,3 C 2,2 C 1,2 C 0,0 C 77 % 81 % 986,1 hPa 0,0 l/m 6,0 km/h (2 Bft) O-NO 67 0 min -0,9 C -0,6 C 4,5 km/h (1 Bft)
28.12.2020 17:30 2,7 C 4,6 C 2,3 C 2,3 C 1,4 C 0,0 C 77 % 80 % 986,3 hPa 0,0 l/m 5,6 km/h (1 Bft) NO 45 0 min -0,9 C -0,3 C 4,0 km/h (1 Bft)
28.12.2020 17:35 2,8 C 4,6 C 2,3 C 2,4 C 1,6 C 0,0 C 77 % 80 % 986,3 hPa 0,0 l/m 5,1 km/h (1 Bft) O 90 0 min -0,8 C 0,2 C 5,5 km/h (1 Bft)
28.12.2020 17:40 2,8 C 4,6 C 2,3 C 2,5 C 1,8 C 0,0 C 76 % 80 % 986,3 hPa 0,0 l/m 4,5 km/h (1 Bft) NO 45 0 min -1,0 C 1,8 C 3,9 km/h (1 Bft)
28.12.2020 17:45 2,8 C 4,6 C 2,3 C 2,6 C 2,2 C 0,0 C 76 % 80 % 986,3 hPa 0,0 l/m 3,7 km/h (1 Bft) O 90 0 min -1,0 C 2,2 C 0,0 km/h (0 Bft)
28.12.2020 17:50 2,7 C 4,6 C 2,2 C 2,7 C 2,7 C 0,0 C 76 % 80 % 985,7 hPa 0,0 l/m 2,6 km/h (1 Bft) N 360 0 min -1,1 C 2,7 C 0,0 km/h (0 Bft)
28.12.2020 17:55 2,7 C 4,6 C 2,2 C 2,7 C 2,6 C 0,0 C 76 % 80 % 985,7 hPa 0,0 l/m 2,3 km/h (1 Bft) O-NO 67 0 min -1,1 C 2,6 C 5,1 km/h (1 Bft)
28.12.2020 18:00 2,6 C 4,6 C 2,2 C 2,4 C 2,1 C 0,0 C 76 % 80 % 985,7 hPa 0,0 l/m 3,5 km/h (1 Bft) NO 45 0 min -1,2 C 2,1 C 4,7 km/h (1 Bft)
28.12.2020 18:05 2,7 C 4,6 C 2,2 C 2,3 C 1,4 C 0,0 C 76 % 80 % 985,7 hPa 0,0 l/m 5,0 km/h (1 Bft) O-NO 67 0 min -1,1 C -0,0 C 6,9 km/h (2 Bft)
28.12.2020 18:10 2,7 C 4,6 C 2,1 C 2,3 C 1,4 C 0,0 C 76 % 79 % 985,9 hPa 0,0 l/m 4,8 km/h (1 Bft) O-NO 67 0 min -1,1 C 0,1 C 4,8 km/h (1 Bft)
28.12.2020 18:15 2,5 C 4,6 C 2,1 C 2,4 C 2,2 C 0,0 C 76 % 79 % 985,9 hPa 0,0 l/m 3,2 km/h (1 Bft) O-NO 67 0 min -1,3 C 2,2 C 1,8 km/h (1 Bft)
28.12.2020 18:20 2,5 C 4,6 C 2,1 C 2,5 C 2,4 C 0,0 C 76 % 79 % 985,9 hPa 0,0 l/m 2,6 km/h (1 Bft) O-NO 67 0 min -1,3 C 2,4 C 2,3 km/h (1 Bft)
28.12.2020 18:25 2,4 C 4,6 C 2,0 C 2,3 C 2,2 C 0,0 C 76 % 79 % 985,9 hPa 0,0 l/m 2,1 km/h (1 Bft) O 90 0 min -1,4 C 2,2 C 1,8 km/h (1 Bft)
28.12.2020 18:30 2,4 C 4,6 C 2,0 C 2,3 C 2,2 C 0,0 C 76 % 79 % 985,9 hPa 0,0 l/m 1,4 km/h (1 Bft) O-NO 67 0 min -1,4 C 2,2 C 2,4 km/h (1 Bft)
28.12.2020 18:35 2,4 C 4,6 C 2,0 C 2,3 C 2,2 C 0,0 C 76 % 79 % 985,9 hPa 0,0 l/m 0,6 km/h (0 Bft) N-NO 22 0 min -1,4 C 2,2 C 0,0 km/h (0 Bft)
28.12.2020 18:40 2,3 C 4,6 C 1,9 C 2,3 C 2,2 C 0,0 C 76 % 80 % 985,9 hPa 0,0 l/m 0,6 km/h (0 Bft) NO 45 0 min -1,5 C 2,2 C 2,6 km/h (1 Bft)
28.12.2020 18:45 2,3 C 4,6 C 1,9 C 2,3 C 2,2 C 0,0 C 76 % 80 % 985,9 hPa 0,0 l/m 0,6 km/h (0 Bft) W-SW 247 0 min -1,5 C 2,2 C 3,5 km/h (1 Bft)
28.12.2020 18:50 2,3 C 4,6 C 1,9 C 2,3 C 2,2 C 0,0 C 76 % 80 % 986,1 hPa 0,0 l/m 0,8 km/h (0 Bft) W-NW 292 0 min -1,5 C 2,2 C 0,0 km/h (0 Bft)
28.12.2020 18:55 2,3 C 4,6 C 1,9 C 2,3 C 2,2 C 0,0 C 76 % 80 % 986,1 hPa 0,0 l/m 0,8 km/h (0 Bft) O-NO 67 0 min -1,5 C 2,2 C 0,0 km/h (0 Bft)
28.12.2020 19:00 2,3 C 4,6 C 1,9 C 2,3 C 2,2 C 0,0 C 76 % 80 % 986,1 hPa 0,0 l/m 0,5 km/h (0 Bft) NO 45 0 min -1,5 C 2,2 C 3,4 km/h (1 Bft)
28.12.2020 19:05 2,3 C 4,6 C 2,0 C 2,3 C 2,3 C 0,0 C 76 % 80 % 986,1 hPa 0,0 l/m 1,0 km/h (0 Bft) NO 45 0 min -1,5 C 2,3 C 1,6 km/h (1 Bft)
28.12.2020 19:10 2,3 C 4,6 C 2,0 C 2,3 C 2,2 C 0,0 C 77 % 80 % 985,9 hPa 0,0 l/m 1,8 km/h (1 Bft) O-SO 112 0 min -1,3 C 2,2 C 3,7 km/h (1 Bft)
28.12.2020 19:15 2,3 C 4,6 C 1,9 C 2,2 C 2,0 C 0,0 C 77 % 81 % 985,9 hPa 0,0 l/m 2,1 km/h (1 Bft) O 90 0 min -1,3 C 2,0 C 3,5 km/h (1 Bft)
28.12.2020 19:20 2,3 C 4,6 C 1,8 C 2,1 C 1,8 C 0,0 C 77 % 82 % 985,9 hPa 0,0 l/m 2,4 km/h (1 Bft) NO 45 0 min -1,3 C 1,8 C 2,6 km/h (1 Bft)
28.12.2020 19:25 2,0 C 4,7 C 1,5 C 1,8 C 1,4 C 0,0 C 78 % 83 % 985,9 hPa 0,0 l/m 2,6 km/h (1 Bft) NO 45 0 min -1,4 C 1,4 C 2,9 km/h (1 Bft)
28.12.2020 19:30 1,8 C 4,7 C 1,4 C 1,6 C 1,2 C 0,0 C 78 % 84 % 986,0 hPa 0,0 l/m 1,8 km/h (1 Bft) NO 45 0 min -1,6 C 1,2 C 0,0 km/h (0 Bft)
28.12.2020 19:35 1,7 C 4,7 C 1,3 C 1,4 C 0,9 C 0,0 C 79 % 84 % 986,0 hPa 0,0 l/m 0,5 km/h (0 Bft) NO 45 0 min -1,5 C 0,9 C 1,8 km/h (1 Bft)
28.12.2020 19:40 1,6 C 4,7 C 1,1 C 1,4 C 0,9 C 0,0 C 80 % 84 % 986,0 hPa 0,0 l/m 0,3 km/h (0 Bft) N-NO 22 0 min -1,5 C 0,9 C 0,0 km/h (0 Bft)
28.12.2020 19:45 1,5 C 4,8 C 1,1 C 1,3 C 0,8 C 0,0 C 80 % 85 % 986,0 hPa 0,0 l/m 0,5 km/h (0 Bft) S 180 0 min -1,6 C 0,8 C 0,0 km/h (0 Bft)
28.12.2020 19:50 1,5 C 4,9 C 0,9 C 1,2 C 0,7 C 0,0 C 80 % 85 % 986,1 hPa 0,0 l/m 0,2 km/h (0 Bft) S 180 0 min -1,6 C 0,7 C 0,0 km/h (0 Bft)
28.12.2020 19:55 1,4 C 4,9 C 0,8 C 1,1 C 0,6 C 0,0 C 80 % 85 % 986,1 hPa 0,0 l/m 0,0 km/h (0 Bft) S 180 0 min -1,7 C 0,6 C 0,0 km/h (0 Bft)
28.12.2020 20:00 1,3 C 4,9 C 0,7 C 1,0 C 0,5 C 0,0 C 81 % 86 % 986,1 hPa 0,0 l/m 0,0 km/h (0 Bft) S 180 0 min -1,6 C 0,5 C 0,0 km/h (0 Bft)
28.12.2020 20:05 1,3 C 4,9 C 0,7 C 1,0 C 0,5 C 0,0 C 82 % 86 % 986,1 hPa 0,0 l/m 0,0 km/h (0 Bft) NO 45 0 min -1,4 C 0,5 C 0,0 km/h (0 Bft)
28.12.2020 20:10 1,2 C 4,9 C 0,7 C 1,0 C 0,5 C 0,0 C 82 % 87 % 986,1 hPa 0,0 l/m 0,3 km/h (0 Bft) NO 45 0 min -1,5 C 0,5 C 1,8 km/h (1 Bft)
28.12.2020 20:15 1,1 C 4,9 C 0,7 C 0,9 C 0,4 C 0,0 C 82 % 87 % 986,1 hPa 0,0 l/m 0,3 km/h (0 Bft) NO 45 0 min -1,6 C 0,4 C 0,0 km/h (0 Bft)
28.12.2020 20:20 1,0 C 4,9 C 0,7 C 0,8 C 0,4 C 0,0 C 83 % 87 % 986,1 hPa 0,0 l/m 0,2 km/h (0 Bft) NO 45 0 min -1,6 C 0,4 C 0,0 km/h (0 Bft)
28.12.2020 20:25 1,1 C 5,0 C 0,7 C 0,9 C 0,4 C 0,0 C 83 % 87 % 986,1 hPa 0,0 l/m 0,0 km/h (0 Bft) NO 45 0 min -1,5 C 0,4 C 0,0 km/h (0 Bft)
28.12.2020 20:30 1,0 C 5,0 C 0,6 C 0,8 C 0,4 C 0,0 C 83 % 87 % 986,0 hPa 0,0 l/m 0,0 km/h (0 Bft) NO 45 0 min -1,6 C 0,4 C 0,0 km/h (0 Bft)
28.12.2020 20:35 0,9 C 5,0 C 0,5 C 0,7 C 0,3 C 0,0 C 83 % 87 % 986,0 hPa 0,0 l/m 0,0 km/h (0 Bft) NO 45 0 min -1,7 C 0,3 C 0,0 km/h (0 Bft)
28.12.2020 20:40 0,9 C 5,0 C 0,5 C 0,7 C 0,3 C 0,0 C 83 % 88 % 986,0 hPa 0,0 l/m 0,0 km/h (0 Bft) NO 45 0 min -1,7 C 0,3 C 0,0 km/h (0 Bft)
28.12.2020 20:45 0,8 C 5,0 C 0,4 C 0,6 C 0,3 C 0,0 C 83 % 88 % 986,0 hPa 0,0 l/m 0,0 km/h (0 Bft) NO 45 0 min -1,8 C 0,3 C 0,0 km/h (0 Bft)
28.12.2020 20:50 0,9 C 5,0 C 0,3 C 0,7 C 0,2 C 0,0 C 83 % 88 % 985,9 hPa 0,0 l/m 0,0 km/h (0 Bft) NO 45 0 min -1,7 C 0,2 C 0,0 km/h (0 Bft)
28.12.2020 20:55 0,8 C 5,0 C 0,3 C 0,6 C 0,2 C 0,0 C 83 % 88 % 985,9 hPa 0,0 l/m 0,0 km/h (0 Bft) NO 45 0 min -1,8 C 0,2 C 0,0 km/h (0 Bft)
28.12.2020 21:00 0,7 C 5,0 C 0,3 C 0,5 C 0,2 C 0,0 C 84 % 88 % 985,9 hPa 0,0 l/m 0,0 km/h (0 Bft) NO 45 0 min -1,7 C 0,2 C 0,0 km/h (0 Bft)
28.12.2020 21:05 0,7 C 5,0 C 0,2 C 0,5 C 0,2 C 0,0 C 84 % 89 % 985,9 hPa 0,0 l/m 0,0 km/h (0 Bft) NO 45 0 min -1,7 C 0,2 C 0,0 km/h (0 Bft)
28.12.2020 21:10 0,7 C 5,0 C 0,2 C 0,5 C 0,2 C 0,0 C 84 % 89 % 985,8 hPa 0,0 l/m 0,0 km/h (0 Bft) NO 45 0 min -1,7 C 0,2 C 0,0 km/h (0 Bft)
28.12.2020 21:15 0,7 C 5,0 C 0,2 C 0,5 C 0,1 C 0,0 C 84 % 89 % 985,8 hPa 0,0 l/m 0,0 km/h (0 Bft) NO 45 0 min -1,7 C 0,1 C 0,0 km/h (0 Bft)
28.12.2020 21:20 0,6 C 5,0 C 0,1 C 0,4 C 0,1 C 0,0 C 85 % 89 % 985,8 hPa 0,0 l/m 0,0 km/h (0 Bft) NO 45 0 min -1,6 C 0,1 C 0,0 km/h (0 Bft)
28.12.2020 21:25 0,7 C 5,0 C 0,2 C 0,5 C 0,1 C 0,0 C 85 % 89 % 985,8 hPa 0,0 l/m 0,0 km/h (0 Bft) NO 45 0 min -1,5 C 0,1 C 1,8 km/h (1 Bft)
28.12.2020 21:30 0,7 C 5,0 C 0,2 C 0,5 C 0,1 C 0,0 C 85 % 90 % 986,1 hPa 0,0 l/m 0,2 km/h (0 Bft) NO 45 0 min -1,5 C 0,1 C 0,0 km/h (0 Bft)
28.12.2020 21:35 0,7 C 5,0 C 0,1 C 0,5 C 0,1 C 0,0 C 85 % 90 % 986,1 hPa 0,0 l/m 0,2 km/h (0 Bft) NO 45 0 min -1,5 C 0,1 C 0,0 km/h (0 Bft)
28.12.2020 21:40 0,7 C 5,0 C 0,1 C 0,5 C 0,1 C 0,0 C 85 % 90 % 986,1 hPa 0,0 l/m 0,0 km/h (0 Bft) NO 45 0 min -1,5 C 0,1 C 0,0 km/h (0 Bft)
28.12.2020 21:45 0,7 C 5,0 C 0,1 C 0,5 C 0,1 C 0,0 C 85 % 90 % 986,1 hPa 0,0 l/m 0,0 km/h (0 Bft) NO 45 0 min -1,5 C 0,1 C 0,0 km/h (0 Bft)
28.12.2020 21:50 0,5 C 5,0 C 0,1 C 0,4 C 0,1 C 0,0 C 86 % 90 % 986,2 hPa 0,0 l/m 0,0 km/h (0 Bft) NO 45 0 min -1,6 C 0,1 C 0,0 km/h (0 Bft)
28.12.2020 21:55 0,5 C 5,0 C 0,1 C 0,4 C 0,1 C 0,0 C 86 % 90 % 986,2 hPa 0,0 l/m 0,0 km/h (0 Bft) NO 45 0 min -1,6 C 0,1 C 0,0 km/h (0 Bft)
28.12.2020 22:00 0,5 C 5,0 C 0,1 C 0,4 C 0,1 C 0,0 C 86 % 90 % 986,2 hPa 0,0 l/m 0,0 km/h (0 Bft) NO 45 0 min -1,6 C 0,1 C 0,0 km/h (0 Bft)
28.12.2020 22:05 0,5 C 5,0 C 0,1 C 0,4 C 0,1 C 0,0 C 86 % 90 % 986,2 hPa 0,0 l/m 0,0 km/h (0 Bft) NO 45 0 min -1,6 C 0,1 C 0,0 km/h (0 Bft)
28.12.2020 22:10 0,5 C 5,0 C 0,1 C 0,4 C 0,1 C 0,0 C 86 % 90 % 985,9 hPa 0,0 l/m 0,0 km/h (0 Bft) NO 45 0 min -1,6 C 0,1 C 0,0 km/h (0 Bft)
28.12.2020 22:15 0,5 C 5,0 C 0,1 C 0,3 C 0,0 C 0,0 C 86 % 90 % 985,9 hPa 0,0 l/m 0,0 km/h (0 Bft) NO 45 0 min -1,6 C 0,0 C 0,0 km/h (0 Bft)
28.12.2020 22:20 0,5 C 5,0 C 0,0 C 0,3 C 0,0 C 0,0 C 86 % 91 % 985,9 hPa 0,0 l/m 0,0 km/h (0 Bft) NO 45 0 min -1,6 C 0,0 C 0,0 km/h (0 Bft)
28.12.2020 22:25 0,5 C 5,0 C 0,0 C 0,3 C 0,0 C 0,0 C 86 % 91 % 985,9 hPa 0,0 l/m 0,0 km/h (0 Bft) NO 45 0 min -1,6 C 0,0 C 0,0 km/h (0 Bft)
28.12.2020 22:30 0,4 C 5,0 C 0,0 C 0,3 C 0,0 C 0,0 C 86 % 91 % 985,7 hPa 0,0 l/m 0,0 km/h (0 Bft) NO 45 0 min -1,7 C 0,0 C 0,0 km/h (0 Bft)
28.12.2020 22:35 0,4 C 5,0 C 0,0 C 0,3 C 0,0 C 0,0 C 86 % 91 % 985,7 hPa 0,0 l/m 0,0 km/h (0 Bft) NO 45 0 min -1,7 C 0,0 C 0,0 km/h (0 Bft)
28.12.2020 22:40 0,4 C 5,0 C -0,1 C 0,3 C 0,0 C 0,0 C 87 % 91 % 985,7 hPa 0,0 l/m 0,0 km/h (0 Bft) NO 45 0 min -1,5 C 0,0 C 0,0 km/h (0 Bft)
28.12.2020 22:45 0,3 C 5,0 C -0,1 C 0,1 C -0,2 C 0,0 C 87 % 91 % 985,7 hPa 0,0 l/m 0,0 km/h (0 Bft) NO 45 0 min -1,6 C -0,2 C 0,0 km/h (0 Bft)
28.12.2020 22:50 0,3 C 5,0 C -0,2 C 0,1 C -0,4 C 0,0 C 87 % 91 % 985,9 hPa 0,0 l/m 0,0 km/h (0 Bft) NO 45 0 min -1,6 C -0,4 C 0,0 km/h (0 Bft)
28.12.2020 22:55 0,3 C 4,9 C -0,4 C 0,0 C -0,7 C 0,0 C 86 % 91 % 985,9 hPa 0,0 l/m 0,0 km/h (0 Bft) NO 45 0 min -1,8 C -0,7 C 0,0 km/h (0 Bft)
28.12.2020 23:00 0,0 C 4,9 C -0,4 C -0,3 C -0,9 C 0,0 C 86 % 91 % 985,9 hPa 0,0 l/m 0,0 km/h (0 Bft) NO 45 0 min -2,1 C -0,9 C 0,0 km/h (0 Bft)
28.12.2020 23:05 0,0 C 4,9 C -0,5 C -0,3 C -1,0 C 0,0 C 87 % 91 % 985,9 hPa 0,0 l/m 0,0 km/h (0 Bft) NO 45 0 min -1,9 C -1,0 C 0,0 km/h (0 Bft)
28.12.2020 23:10 -0,1 C 4,9 C -0,6 C -0,4 C -1,1 C 0,0 C 86 % 91 % 985,8 hPa 0,0 l/m 0,0 km/h (0 Bft) NO 45 0 min -2,2 C -1,1 C 0,0 km/h (0 Bft)
28.12.2020 23:15 -0,1 C 4,9 C -0,7 C -0,5 C -1,3 C 0,0 C 86 % 91 % 985,8 hPa 0,0 l/m 0,0 km/h (0 Bft) NO 45 0 min -2,2 C -1,3 C 0,0 km/h (0 Bft)
28.12.2020 23:20 -0,1 C 4,9 C -0,6 C -0,5 C -1,2 C 0,0 C 86 % 91 % 985,8 hPa 0,0 l/m 0,0 km/h (0 Bft) NO 45 0 min -2,2 C -1,2 C 0,0 km/h (0 Bft)
28.12.2020 23:25 -0,1 C 4,9 C -0,5 C -0,4 C -1,0 C 0,0 C 87 % 91 % 985,8 hPa 0,0 l/m 0,0 km/h (0 Bft) NO 45 0 min -2,0 C -1,0 C 0,0 km/h (0 Bft)
28.12.2020 23:30 -0,1 C 4,9 C -0,4 C -0,3 C -0,8 C 0,0 C 87 % 91 % 986,0 hPa 0,0 l/m 0,0 km/h (0 Bft) NO 45 0 min -2,0 C -0,8 C 0,0 km/h (0 Bft)
28.12.2020 23:35 -0,1 C 4,9 C -0,3 C -0,3 C -0,6 C 0,0 C 87 % 91 % 986,0 hPa 0,0 l/m 0,0 km/h (0 Bft) NO 45 0 min -2,0 C -0,6 C 0,0 km/h (0 Bft)
28.12.2020 23:40 -0,1 C 4,9 C -0,3 C -0,2 C -0,5 C 0,0 C 87 % 91 % 986,0 hPa 0,0 l/m 0,0 km/h (0 Bft) NO 45 0 min -2,0 C -0,5 C 0,0 km/h (0 Bft)
28.12.2020 23:45 -0,1 C 4,9 C -0,3 C -0,2 C -0,4 C 0,0 C 87 % 91 % 986,0 hPa 0,0 l/m 0,0 km/h (0 Bft) NO 45 0 min -2,0 C -0,4 C 0,0 km/h (0 Bft)
28.12.2020 23:50 -0,1 C 4,9 C -0,3 C -0,2 C -0,4 C 0,0 C 87 % 91 % 985,9 hPa 0,0 l/m 0,0 km/h (0 Bft) NO 45 0 min -2,0 C -0,4 C 0,0 km/h (0 Bft)
28.12.2020 23:55 -0,1 C 4,9 C -0,3 C -0,2 C -0,4 C 0,0 C 87 % 91 % 985,9 hPa 0,0 l/m 0,0 km/h (0 Bft) NO 45 0 min -2,0 C -0,4 C 0,0 km/h (0 Bft)
_ Min-Zeit 23:10 00:00 23:15 23:15 23:15 00:00 00:00 00:00 17:50 - 05:55 - - - 00:00 16:45 00:39
Minimum _ -0,1 C 3,9 C -0,7 C -0,5 C -1,3 C 0,0 C 67 % 71 % 985,7 hPa - 0,0 km/h (0 Bft) - - - -4,0 C -1,6 C 0,0 km/h (0 Bft)
_ Max-Zeit 13:40 20:25 13:35 13:10 13:10 13:10 22:40 22:20 00:00 00:00 17:20 - - 00:00 13:40 13:10 17:15
Maximum _ 4,5 C 5,0 C 4,1 C 6,3 C 6,3 C 2,2 C 87 % 91 % 989,9 hPa 0,0 l/m 6,8 km/h
NO (2 Bft)
- - 0 min 0,1 C 6,3 C 11,3 km/h
O-NO (2 Bft)
Durchschnitt _ 2,1 C 4,3 C 1,6 C 2,1 C 1,8 C 0,2 C 77 % 81 % 986,9 hPa #0,0 l/m 1,6 km/h (1 Bft) O-NO - #0 min. -1,6 C 1,6 C 2,1 km/h (1 Bft)
2020 www.wetterstation-wechselburg.de